星链-2743 (STARLINK-2743 )

导读

STARLINK-2743是美国SpaceX公司星链(Starlink)卫星互联网星座中的一员,于2021年5月26日发射升空。星链项目旨在通过近地轨道卫星群,为全球尤其是偏远无基础设施覆盖区域提供高速低延迟宽带互联网服务。作为星链星座的组成部分,该卫星助力SpaceX扩展全球网络覆盖,推动卫星互联网普及。

Basic Information
目录编号:
48682
目录名称:
STARLINK-2743
国际标识:
2021-044AW
轨道中心:
EARTH
卫星名称:
星链-2743
卫星全名:
星链-2743 (STARLINK-2743 )
卫星状态:
在轨 (已飞行1927 天)
发射日期:
2021-05-26 UTC
国别 :
美国 (US)
星等 :
--
Orbit Information
数据来源 国际轨道数据
星历时间: 2026-09-03T23:58:57+0800
14小时前
查看轨道信息
半长轴: 6848.887km
偏心率: 0.0001185
轨道倾角: 53.161°
近地点辐角 82.475°
升交点赤经 316.766°
平近点角 277.639°
近地点: 469.938km
远地点: 471.562km
周期: 94.013分钟
每日圈数: 15.316968
Detailed Information
固有亮度:
5
最大亮度:
2.5
卫星平台:
Starlink v1.5
覆盖范围:
全球
运营商:
太空探索技术公司
运营商所在国:
美国
制造商(研发单位):
太空探索技术公司
制造商所在国:
美国
使用方式:
暂无
Satellite Introduction
星链(Starlink)计划是由太空探索技术公司(SpaceX)提出的一个巨型低轨卫星互联网星座项目,计划在2019年至2024年间在太空搭建由约1.2万颗卫星组成的“星链”网络,其中1584颗将部署在地球上空550千米处的近地轨道,并从2020年开始工作。该卫星仍在工作。
2D Orbit Map
3D Orbit Map
Orbit Altitude Analysis Chart
Orbit Inclination Analysis Chart
Orbit Comprehensive Analysis Chart
View Comprehensive Chart
Conjunction Data List
Event ID Objects TCA Miss Dist (km) Collision Risk Probability Collision Risk Index (CRI) Action
CDM_260905-051604-868206-349721
2026-09-05T
05:16:56+0000
0.713 km
远距离
5.106451E-5 中风险 0.69
CDM_260905-121904-868206-349721
2026-09-05T
12:19:44+0000
1.176 km
极远距离
9.5617E-6 低风险 0.55
CDM_260828-133604-868206-789121
2026-08-28T
13:36:58+0000
2.896 km
极远距离
1.395597E-6 低风险 0.38